Weather History for KDVN - November, 2012

Change the Weather History Date:

Thursday, November 22, 2012

  Actual Average Record
Temperature  
Mean Temperature 51 °F 35 °F  
Max Temperature 63 °F 44 °F 70 °F (2010)
Min Temperature 38 °F 27 °F 9 °F (2000)
Degree Days  
Heating Degree Days 14 30  
Month to date heating degree days 482 531  
Since 1 July heating degree days 1142 1091  
Cooling Degree Days 0 0  
Month to date cooling degree days 0 0  
Year to date cooling degree days 1114 786  
Growing Degree Days 1 (Base 50)    
Moisture  
Dew Point 40 °F    
Average Humidity 64    
Maximum Humidity 77    
Minimum Humidity 51    
Precipitation  
Precipitation 0.02 in 0.06 in 0.25 in (1951)
Month to date precipitation 0.92 1.87  
Year to date precipitation 27.70 33.72  
Snow  
Snow 0.00 in - - ()
Month to date snowfall T  
Since 1 July snowfall T  
Since 1 September snowfall T  
Snow Depth 0.00 in    
Sea Level Pressure  
Sea Level Pressure 29.90 in    
Wind  
Wind Speed 19 mph (SW)    
Max Wind Speed 31 mph    
Max Gust Speed 43 mph    
Visibility 9 miles    
Events Rain    
T = Trace of Precipitation, MM = Missing Value Source: NWS Daily Summary

Daily Weather History Graph

Daily Weather History Graph

Search for Another Location

Airport or City:

Trip Planner

Search our weather history database for the weather conditions in past years. The results will help you decide how hot, cold, wet, or windy it might be!

Date:

Astronomy

Nov. 22, 2012 Rise Set
Actual Time 7:00 AM CST 4:36 PM CST
Civil Twilight 6:29 AM CST 5:07 PM CST
Nautical Twilight 5:55 AM CST 5:41 PM CST
Astronomical Twilight 5:22 AM CST 6:14 PM CST
Moon 1:26 PM CST (11/22) 1:16 AM CST (11/22)
Length of Visible Light 10h 37m
Length of Day
9h 36m
Waxing Gibbous, 71% of the Moon is Illuminated
Nov 22
Waxing Gibbous
Nov 28
Full
Dec 6
Last Quarter
Dec 13
New
Dec 19
First Quarter

Hourly Weather History & Observations

Time (CST) Temp. Windchill Dew Point Humidity Pressure Visibility Wind Dir Wind Speed Gust Speed Precip Events Conditions
12:52 AM 48.0 °F - 41.0 °F 77% 30.02 in 7.0 mi South 13.8 mph - N/A   Clear
1:52 AM 50.0 °F - 42.1 °F 74% 30.00 in 5.0 mi South 15.0 mph - N/A   Haze
2:52 AM 48.9 °F - 41.0 °F 74% 29.99 in 6.0 mi South 15.0 mph - N/A   Haze
3:52 AM 50.0 °F - 41.0 °F 71% 29.96 in 6.0 mi South 16.1 mph - N/A   Haze
4:52 AM 48.9 °F - 39.9 °F 71% 29.95 in 6.0 mi South 15.0 mph - N/A   Haze
5:52 AM 48.9 °F - 39.9 °F 71% 29.92 in 8.0 mi South 17.3 mph - N/A   Clear
6:52 AM 51.1 °F - 39.0 °F 63% 29.91 in 9.0 mi South 19.6 mph 27.6 mph N/A   Scattered Clouds
7:52 AM 53.1 °F - 39.0 °F 59% 29.90 in 10.0 mi South 18.4 mph - N/A   Overcast
8:52 AM 55.0 °F - 39.0 °F 55% 29.88 in 10.0 mi South 20.7 mph 29.9 mph N/A   Overcast
9:52 AM 57.0 °F - 41.0 °F 55% 29.87 in 10.0 mi South 20.7 mph 28.8 mph N/A   Clear
10:52 AM 61.0 °F - 43.0 °F 52% 29.84 in 10.0 mi SSW 19.6 mph 28.8 mph N/A   Clear
11:52 AM 63.0 °F - 44.1 °F 50% 29.81 in 10.0 mi SSW 26.5 mph 32.2 mph N/A   Clear
12:52 PM 61.0 °F - 44.1 °F 54% 29.79 in 10.0 mi SSW 20.7 mph 28.8 mph N/A   Clear
1:52 PM 57.0 °F - 46.9 °F 69% 29.78 in 5.0 mi South 17.3 mph 27.6 mph 0.01 in Rain Light Rain
2:52 PM 55.9 °F - 48.0 °F 75% 29.77 in 10.0 mi South 15.0 mph 26.5 mph 0.01 in   Partly Cloudy
3:52 PM 57.9 °F - 48.0 °F 70% 29.78 in 10.0 mi SSW 16.1 mph 23.0 mph N/A   Clear
4:52 PM 59.0 °F - 48.0 °F 67% 29.78 in 10.0 mi SSW 13.8 mph - N/A   Clear
5:52 PM 57.9 °F - 48.9 °F 72% 29.81 in 10.0 mi SW 15.0 mph - N/A   Scattered Clouds
6:31 PM 55.4 °F - 42.8 °F 63% 29.84 in 10.0 mi WNW 19.6 mph - N/A   Clear
6:52 PM 52.0 °F - 41.0 °F 66% 29.87 in 10.0 mi WNW 23.0 mph 28.8 mph N/A   Clear
7:52 PM 45.0 °F 36.4 °F 35.1 °F 68% 29.93 in 10.0 mi WNW 23.0 mph 34.5 mph N/A   Clear
8:52 PM 42.1 °F 34.5 °F 35.1 °F 76% 29.97 in 10.0 mi WNW 15.0 mph - N/A   Clear
9:52 PM 39.9 °F 28.2 °F 30.9 °F 70% 29.99 in 10.0 mi WNW 31.1 mph 42.6 mph N/A   Partly Cloudy
10:41 PM 39.2 °F 29.0 °F 30.2 °F 70% 30.00 in 10.0 mi WNW 21.9 mph 32.2 mph N/A   Mostly Cloudy
10:52 PM 39.9 °F 30.0 °F 30.9 °F 70% 30.01 in 10.0 mi WNW 21.9 mph 32.2 mph N/A   Mostly Cloudy
11:29 PM 39.2 °F 29.8 °F 30.2 °F 70% 30.01 in 10.0 mi WNW 18.4 mph - N/A   Partly Cloudy
11:52 PM 37.9 °F 28.9 °F 30.9 °F 76% 30.03 in 10.0 mi West 16.1 mph - N/A   Partly Cloudy